1513242000.11,57028,5.56,71750.0,-5.65,-15.35,-15.29,0,*53
1513242001.37,57029,5.56,71756.5,-5.65,-15.21,-15.29,0,*57
1513242002.58,57030,5.63,71768.8,-5.67,-15.29,-15.29,0,*55
1513242003.79,57031,5.56,71774.8,-5.67,-15.15,-15.15,0,*54
1513242005.02,57032,5.63,71786.0,-5.65,-15.15,-15.15,0,*55
1513242006.27,57033,5.63,71784.8,-5.67,-15.21,-15.21,0,*56
1513242007.53,57034,5.56,71782.8,-5.67,-15.35,-15.35,0,*51
1513242008.81,57035,5.63,71776.5,-5.65,-15.35,-15.39,0,*5E
1513242010.07,57036,5.56,71782.8,-5.65,-15.49,-15.39,0,*56
1513242011.32,57037,5.56,71778.5,-5.65,-15.29,-15.29,0,*50
1513242012.58,57038,5.56,71762.8,-5.65,-15.35,-15.29,0,*52
1513242013.86,57039,5.63,71778.3,-5.65,-15.39,-15.35,0,*52
1513242015.1,57040,5.56,71780.8,-5.67,-15.49,-15.39,0,*55
1513242016.36,57041,5.56,71786.3,-5.63,-15.43,-15.35,0,*56
1513242017.62,57042,5.56,71780.8,-5.63,-15.43,-15.35,0,*55
1513242018.83,57043,5.56,71754.5,-5.67,-15.49,-15.49,0,*51
1513242020.07,57044,5.63,71748.5,-5.65,-15.53,-15.49,0,*5F
1513242021.32,57045,5.63,71762.5,-5.65,-15.53,-15.49,0,*5E
1513242022.55,57046,5.56,71758.5,-5.63,-15.49,-15.43,0,*5A
1513242023.82,57047,5.63,71760.8,-5.65,-15.53,-15.39,0,*5B
1513242025.08,57048,5.63,71748.5,-5.65,-15.53,-15.39,0,*54
1513242026.35,57049,5.56,71748.3,-5.65,-15.53,-15.39,0,*55
1513242027.57,57050,5.56,71742.3,-5.67,-15.49,-15.35,0,*58
1513242028.81,57051,5.56,71736.8,-5.67,-15.49,-15.39,0,*55
1513242030.09,57052,5.56,71756.0,-5.65,-15.39,-15.35,0,*5F
1513242031.35,57053,5.56,71772.8,-5.65,-15.49,-15.35,0,*59
1513242032.61,57054,5.56,71750.5,-5.63,-15.43,-15.35,0,*52
1513242033.85,57055,5.63,71758.8,-5.63,-15.35,-15.29,0,*5F
1513242035.11,57056,5.56,71756.0,-5.63,-15.43,-15.35,0,*50
1513242036.37,57057,5.56,71752.5,-5.65,-15.49,-15.39,0,*51
1513242037.63,57058,5.56,71758.5,-5.65,-15.49,-15.35,0,*52
1513242038.89,57059,5.56,71752.8,-5.65,-15.53,-15.35,0,*58
1513242040.14,57060,5.56,71762.8,-5.65,-15.53,-15.21,0,*57
1513242041.4,57061,5.56,71774.0,-5.65,-15.53,-15.21,0,*56
1513242042.63,57062,5.56,71778.8,-5.65,-15.49,-15.15,0,*59
1513242043.87,57063,5.56,71782.3,-5.65,-15.49,-15.07,0,*5B
1513242045.12,57064,5.56,71788.3,-5.65,-15.49,-15.01,0,*5A
1513242046.37,57065,5.56,71776.5,-5.65,-15.49,-15.01,0,*5B
1513242047.61,57066,5.56,71788.8,-5.65,-15.53,-15.15,0,*56
1513242048.84,57067,5.56,71774.3,-5.65,-15.53,-14.89,0,*53
1513242050.08,57068,5.56,71752.3,-5.63,-15.43,-14.89,0,*5B
1513242051.34,57069,5.63,71746.5,-5.63,-15.35,-14.83,0,*51
1513242052.6,57070,5.56,71760.8,-5.65,-15.39,-14.89,0,*59
1513242053.88,57071,5.56,71770.8,-5.65,-15.35,-14.75,0,*57
1513242055.09,57072,5.56,71732.3,-5.63,-15.29,-14.69,0,*52
1513242056.35,57073,5.56,71734.3,-5.63,-15.43,-14.75,0,*52
1513242057.61,57074,5.56,71734.8,-5.63,-15.35,-14.75,0,*54
1513242058.84,57075,5.56,71736.3,-5.61,-15.25,-14.69,0,*5B
1513242060.09,57076,5.56,71740.5,-5.65,-15.21,-14.65,0,*54
1513242061.37,57077,5.56,71746.5,-5.65,-15.21,-14.75,0,*54
1513242062.59,57078,5.56,71762.5,-5.65,-15.07,-14.61,0,*5A
1513242063.85,57079,5.56,71766.8,-5.65,-15.29,-14.79,0,*5E
1513242065.11,57080,5.56,71760.0,-5.65,-15.15,-14.79,0,*57
1513242066.35,57081,5.56,71764.0,-5.65,-15.15,-14.89,0,*59
1513242067.58,57082,5.56,71760.3,-5.65,-15.15,-14.89,0,*5A
1513242068.86,57083,5.56,71772.3,-5.65,-15.21,-15.01,0,*5D
1513242070.11,57084,5.56,71788.8,-5.65,-15.15,-15.01,0,*5D
1513242071.34,57085,5.63,71786.3,-5.67,-15.07,-14.93,0,*57
1513242072.55,57086,5.63,71780.8,-5.67,-15.15,-15.07,0,*5B
1513242073.8,57087,5.63,71772.8,-5.67,-15.21,-15.21,0,*59
1513242075.03,57088,5.56,71770.3,-5.67,-15.21,-15.29,0,*5E
1513242076.24,57089,5.56,71772.3,-5.67,-15.29,-15.49,0,*51
1513242077.51,57090,5.56,71792.0,-5.65,-15.35,-15.49,0,*56
1513242078.74,57091,5.56,71782.5,-5.67,-15.35,-15.53,0,*5E
1513242079.97,57092,5.56,71778.3,-5.65,-15.49,-15.63,0,*57
1513242081.2,57093,5.56,71748.3,-5.65,-15.49,-15.63,0,*56
1513242082.41,57094,5.56,71754.0,-5.67,-15.67,-15.75,0,*58
1513242083.64,57095,5.56,71800.5,-5.67,-15.63,-15.89,0,*5E
1513242084.85,57096,5.56,71810.0,-5.67,-15.63,-15.75,0,*5E
1513242086.08,57097,5.56,71808.3,-5.69,-15.63,-15.67,0,*52
1513242087.32,57098,5.56,71804.3,-5.69,-15.63,-15.75,0,*5E
1513242088.52,57099,5.56,71814.3,-5.67,-15.53,-15.63,0,*55
1513242089.76,57100,5.56,71796.8,-5.65,-15.49,-15.53,0,*5E
1513242090.99,57101,5.56,71792.0,-5.65,-15.53,-15.63,0,*57
1513242092.2,57102,5.56,71758.5,-5.67,-15.63,-15.63,0,*55
1513242093.49,57103,5.56,71806.5,-5.69,-15.89,-15.81,0,*52
1513242094.72,57104,5.56,71806.5,-5.69,-15.75,-15.67,0,*5E
1513242095.95,57105,5.56,71752.3,-5.69,-15.75,-15.67,0,*5F
1513242097.2,57106,5.56,71790.3,-5.69,-15.81,-15.67,0,*57
1513242098.43,57107,5.56,71808.5,-5.67,-15.81,-15.67,0,*58
1513242099.64,57108,5.56,71816.5,-5.67,-15.75,-15.63,0,*58
1513242100.87,57109,5.56,71792.5,-5.69,-15.95,-15.75,0,*5E
1513242102.1,57110,5.56,71800.8,-5.69,-15.95,-15.67,0,*55
1513242103.33,57111,5.56,71820.8,-5.67,-15.81,-15.67,0,*5F
1513242104.59,57112,5.56,71794.0,-5.69,-15.67,-15.39,0,*51
1513242105.81,57113,5.56,71794.3,-5.71,-15.75,-15.49,0,*5D
1513242107.03,57114,5.56,71802.3,-5.67,-15.53,-15.29,0,*5F
1513242108.29,57115,5.56,71766.3,-5.69,-15.63,-15.35,0,*5E
1513242109.54,57116,5.56,71760.8,-5.69,-15.63,-15.35,0,*5D
1513242110.81,57117,5.56,71744.0,-5.69,-15.63,-15.39,0,*50
1513242112.05,57118,5.56,71710.8,-5.69,-15.75,-15.53,0,*54
1513242113.31,57119,5.56,71740.5,-5.65,-15.81,-15.53,0,*52
1513242114.55,57120,5.56,71750.8,-5.69,-15.75,-15.49,0,*54
1513242115.79,57121,5.56,71758.8,-5.67,-15.81,-15.53,0,*5B
1513242117.05,57122,5.56,71760.3,-5.71,-15.85,-15.57,0,*5F
1513242118.29,57123,5.56,71766.0,-5.65,-15.75,-15.53,0,*50
1513242119.55,57124,5.56,71774.3,-5.65,-15.67,-15.39,0,*58
1513242120.79,57125,5.56,71760.8,-5.67,-15.67,-15.39,0,*5B
1513242122.0,57126,5.56,71774.8,-5.67,-15.53,-15.15,0,*51
1513242123.2,57127,5.56,71774.5,-5.67,-15.07,-14.65,0,*57
1513242124.45,57128,5.56,71774.5,-5.67,-14.93,-14.75,0,*55
1513242125.71,57129,5.56,71790.8,-5.67,-15.35,-15.21,0,*59
1513242126.94,57130,5.56,71760.3,-5.67,-15.53,-15.35,0,*54
1513242128.17,57131,5.56,71752.5,-5.67,-15.63,-15.35,0,*56
1513242129.39,57132,5.56,71734.0,-5.67,-15.75,-15.49,0,*59
1513242130.62,57133,5.56,71754.5,-5.67,-15.81,-15.49,0,*53
1513242131.89,57134,5.56,71720.0,-5.65,-15.89,-15.53,0,*55
1513242133.09,57135,5.56,71706.3,-5.67,-16.03,-15.63,0,*54
1513242134.35,57136,5.56,71684.5,-5.67,-16.23,-15.89,0,*51
1513242135.59,57137,5.56,71698.0,-5.67,-16.17,-15.75,0,*54
1513242136.84,57138,5.56,71702.5,-5.65,-16.09,-15.67,0,*55
1513242138.06,57139,5.56,71742.5,-5.67,-15.63,-15.29,0,*53
1513242139.29,57140,5.56,71738.3,-5.67,-15.53,-15.35,0,*53
1513242140.52,57141,5.56,71716.3,-5.67,-15.89,-15.63,0,*56
1513242141.76,57142,5.56,71692.5,-5.67,-15.75,-15.35,0,*55
1513242143.0,57143,5.56,71708.5,-5.67,-15.75,-15.39,0,*58
1513242144.23,57144,5.63,71706.0,-5.69,-16.03,-15.63,0,*5C
1513242145.43,57145,5.56,71704.8,-5.67,-15.95,-15.63,0,*5F
1513242146.67,57146,5.56,71702.8,-5.69,-16.03,-15.63,0,*5E
1513242147.91,57147,5.56,71696.8,-5.69,-15.95,-15.53,0,*50
1513242149.16,57148,5.56,71686.8,-5.69,-15.89,-15.63,0,*51
1513242150.45,57149,5.56,71684.8,-5.69,-15.81,-15.39,0,*57
1513242151.71,57150,5.56,71702.3,-5.69,-15.89,-15.63,0,*58
1513242152.94,57151,5.56,71676.0,-5.69,-15.95,-15.63,0,*54
1513242154.14,57152,5.56,71692.3,-5.71,-15.99,-15.67,0,*56
1513242155.39,57153,5.56,71678.0,-5.69,-15.75,-15.49,0,*50
1513242156.63,57154,5.56,71690.0,-5.71,-15.85,-15.53,0,*5A
1513242157.9,57155,5.56,71660.8,-5.69,-16.09,-15.75,0,*51
1513242159.14,57156,5.56,71646.5,-5.71,-16.13,-15.71,0,*54
1513242160.37,57157,5.56,71644.0,-5.69,-16.03,-15.67,0,*5A
1513242161.6,57158,5.56,71666.3,-5.69,-16.03,-15.67,0,*55
1513242162.8,57159,5.56,71654.5,-5.71,-15.99,-15.67,0,*5D
1513242164.03,57160,5.56,71638.5,-5.67,-15.81,-15.63,0,*5D
1513242165.27,57161,5.56,71664.3,-5.71,-16.09,-15.67,0,*5C
1513242166.5,57162,5.56,71674.3,-5.69,-15.95,-15.63,0,*54
1513242167.76,57163,5.56,71680.8,-5.69,-15.89,-15.63,0,*58
1513242169.02,57164,5.56,71698.8,-5.71,-15.85,-15.57,0,*5D
1513242170.23,57165,5.56,71702.5,-5.71,-15.95,-15.67,0,*5E
1513242171.46,57166,5.56,71678.3,-5.69,-15.95,-15.67,0,*54
1513242172.7,57167,5.56,71670.8,-5.71,-15.95,-15.57,0,*5F
1513242173.96,57168,5.56,71666.3,-5.71,-15.85,-15.57,0,*51
1513242175.2,57169,5.56,71672.0,-5.71,-15.85,-15.53,0,*54
1513242176.44,57170,5.56,71674.8,-5.69,-15.63,-15.07,0,*5C
1513242177.7,57171,5.56,71676.3,-5.71,-15.43,-15.21,0,*52
1513242178.93,57172,5.56,71684.8,-5.69,-15.29,-15.15,0,*53
1513242180.22,57173,5.56,71690.5,-5.69,-15.39,-15.21,0,*54
1513242181.47,57174,5.56,71690.3,-5.71,-15.21,-14.97,0,*5F
1513242182.71,57175,5.56,71688.5,-5.71,-15.25,-15.21,0,*56
1513242183.99,57176,5.56,71694.8,-5.69,-15.35,-15.21,0,*5D
1513242185.23,57177,5.56,71724.0,-5.71,-15.07,-14.83,0,*5D
1513242186.47,57178,5.56,71718.0,-5.71,-15.43,-15.25,0,*5F
1513242187.69,57179,5.56,71734.5,-5.71,-15.53,-15.25,0,*5F
1513242188.91,57180,5.56,71662.5,-5.71,-15.71,-15.53,0,*58
1513242190.18,57181,5.56,71642.0,-5.71,-15.85,-15.57,0,*56
1513242191.44,57182,5.56,71710.5,-5.71,-15.57,-15.39,0,*52
1513242192.7,57183,5.56,71716.3,-5.71,-15.21,-14.93,0,*53
1513242193.94,57184,5.56,71728.8,-5.71,-14.37,-14.55,0,*58
1513242195.2,57185,5.56,71740.0,-5.73,-14.55,-14.89,0,*5E
1513242196.46,57186,5.56,71750.8,-5.71,-14.79,-14.83,0,*5B
1513242197.72,57187,5.56,71756.0,-5.73,-14.89,-15.01,0,*5C
1513242199.0,57188,5.56,71734.3,-5.73,-14.97,-14.97,0,*52
1513242200.23,57189,5.56,71728.3,-5.71,-15.07,-14.97,0,*59
1513242201.47,57190,5.56,71724.0,-5.71,-15.25,-15.21,0,*5D
1513242202.71,57191,5.56,71720.3,-5.71,-15.25,-14.97,0,*50
1513242203.94,57192,5.63,71700.0,-5.71,-14.79,-14.11,0,*55
1513242205.18,57193,5.56,71680.0,-5.71,-15.35,-15.11,0,*5C
1513242206.43,57194,5.56,71704.5,-5.73,-15.49,-14.97,0,*5D
1513242207.7,57195,5.56,71706.3,-5.73,-15.57,-15.25,0,*5B
1513242208.93,57196,5.56,71728.3,-5.73,-15.49,-15.15,0,*54
1513242210.17,57197,5.56,71732.5,-5.73,-15.49,-15.25,0,*56
1513242211.4,57198,5.56,71750.5,-5.73,-15.49,-15.15,0,*5A
1513242212.64,57199,5.56,71730.3,-5.73,-15.49,-15.29,0,*54
1513242213.9,57200,5.56,71738.3,-5.73,-15.43,-15.15,0,*52
1513242215.16,57201,5.56,71748.3,-5.73,-15.39,-15.11,0,*5A
1513242216.4,57202,5.56,71748.0,-5.75,-15.57,-15.29,0,*5C
1513242217.63,57203,5.56,71744.3,-5.71,-15.21,-15.11,0,*53
1513242218.89,57204,5.56,71730.3,-5.71,-15.57,-15.35,0,*53
1513242220.15,57205,5.56,71760.8,-5.71,-15.43,-15.21,0,*52
1513242221.39,57206,5.56,71764.8,-5.71,-15.25,-14.93,0,*59
1513242222.65,57207,5.56,71746.3,-5.71,-15.35,-14.93,0,*59
1513242223.88,57208,5.56,71734.5,-5.73,-15.49,-15.15,0,*50
1513242225.12,57209,5.56,71744.3,-5.73,-15.63,-15.29,0,*56
1513242226.36,57210,5.56,71720.5,-5.73,-15.49,-15.25,0,*5A
1513242227.62,57211,5.56,71730.5,-5.73,-15.39,-14.89,0,*5B
1513242228.9,57212,5.56,71750.8,-5.73,-14.83,-14.75,0,*5B
1513242230.11,57213,5.56,71762.0,-5.71,-14.69,-14.65,0,*5D
1513242231.36,57214,5.56,71762.8,-5.73,-15.11,-15.01,0,*55
1513242232.62,57215,5.56,71754.5,-5.73,-15.57,-15.11,0,*57
1513242233.85,57216,5.56,71762.3,-5.73,-15.49,-15.11,0,*5B
1513242235.13,57217,5.56,71770.0,-5.73,-15.57,-15.01,0,*54
1513242236.36,57218,5.56,71756.8,-5.71,-15.35,-14.69,0,*52
1513242237.57,57219,5.56,71744.8,-5.71,-15.07,-14.65,0,*5E
1513242238.83,57220,5.56,71742.0,-5.71,-14.97,-14.55,0,*5F
1513242240.06,57221,5.56,71732.8,-5.71,-15.21,-14.37,0,*56
1513242241.26,57222,5.56,71742.5,-5.71,-15.11,-14.69,0,*5D
1513242242.53,57223,5.56,71742.5,-5.69,-15.01,-14.75,0,*59
1513242243.79,57224,5.56,71728.0,-5.73,-15.25,-14.97,0,*5F
1513242245.05,57225,5.56,71730.8,-5.73,-15.11,-14.97,0,*59
1513242246.28,57226,5.56,71758.5,-5.71,-15.07,-14.93,0,*5B
1513242247.52,57227,5.56,71770.8,-5.71,-15.07,-14.97,0,*5E
1513242248.76,57228,5.56,71756.5,-5.71,-15.25,-14.97,0,*51
1513242250.01,57229,5.56,71764.8,-5.71,-15.21,-14.93,0,*50
1513242251.24,57230,5.56,71770.3,-5.71,-15.11,-14.93,0,*5B
1513242252.48,57231,5.56,71770.0,-5.71,-15.11,-14.97,0,*5E
1513242253.7,57232,5.56,71766.0,-5.71,-15.53,-15.25,0,*53
1513242254.93,57233,5.56,71760.0,-5.71,-15.53,-15.21,0,*56
1513242256.17,57234,5.56,71734.8,-5.71,-15.43,-15.11,0,*53
1513242257.39,57235,5.56,71746.0,-5.71,-15.53,-15.25,0,*54
1513242258.63,57236,5.56,71762.8,-5.69,-15.49,-15.15,0,*56
1513242259.86,57237,5.56,71770.8,-5.71,-15.53,-15.35,0,*57
1513242261.13,57238,5.56,71754.3,-5.71,-15.39,-15.21,0,*51
1513242262.34,57239,5.56,71766.0,-5.71,-15.53,-15.11,0,*5F
1513242263.58,57240,5.56,71742.0,-5.71,-15.43,-15.07,0,*57
1513242264.8,57241,5.56,71738.3,-5.71,-15.53,-15.25,0,*57
1513242266.06,57242,5.56,71738.5,-5.69,-15.39,-15.15,0,*52
1513242267.3,57243,5.56,71778.8,-5.71,-15.67,-15.43,0,*52
1513242268.55,57244,5.56,71772.0,-5.69,-15.49,-15.35,0,*51
1513242269.79,57245,5.56,71776.5,-5.71,-15.49,-15.39,0,*55
1513242271.06,57246,5.56,71794.3,-5.71,-15.57,-15.43,0,*54
1513242272.32,57247,5.56,71774.0,-5.71,-15.57,-15.43,0,*55
1513242273.54,57248,5.56,71774.0,-5.71,-15.67,-15.53,0,*58
1513242274.78,57249,5.56,71794.0,-5.69,-15.63,-15.49,0,*5F
1513242276.04,57250,5.56,71814.0,-5.71,-15.57,-15.43,0,*53
1513242277.3,57251,5.56,71810.5,-5.69,-15.53,-15.35,0,*5E
1513242278.56,57252,5.56,71802.3,-5.69,-15.53,-15.35,0,*5D
1513242279.83,57253,5.56,71802.8,-5.71,-15.57,-15.39,0,*5D
1513242281.04,57254,5.56,71798.3,-5.71,-15.67,-15.53,0,*55
1513242282.3,57255,5.56,71800.5,-5.69,-15.67,-15.57,0,*59
1513242283.54,57256,5.56,71794.5,-5.69,-15.75,-15.53,0,*5D
1513242284.78,57257,5.56,71792.3,-5.69,-15.75,-15.53,0,*5C
1513242286.02,57258,5.56,71794.3,-5.69,-15.67,-15.53,0,*50
1513242287.26,57259,5.56,71816.3,-5.71,-15.57,-15.53,0,*5B
1513242288.52,57260,5.56,71814.0,-5.69,-15.53,-15.35,0,*5C
1513242289.78,57261,5.56,71814.3,-5.69,-15.53,-15.39,0,*51
1513242291.03,57262,5.56,71808.0,-5.69,-15.53,-15.29,0,*53
1513242292.27,57263,5.56,71796.0,-5.71,-15.57,-15.53,0,*52
1513242293.51,57264,5.56,71784.8,-5.71,-15.57,-15.53,0,*55
1513242294.77,57265,5.56,71778.8,-5.71,-15.57,-15.43,0,*55
1513242296.03,57266,5.56,71772.5,-5.69,-15.49,-15.35,0,*51
1513242297.27,57267,5.56,71786.5,-5.71,-15.57,-15.53,0,*56
1513242298.53,57268,5.56,71778.8,-5.71,-15.57,-15.43,0,*58
1513242299.79,57269,5.56,71750.8,-5.69,-15.49,-15.35,0,*5E
1513242301.02,57270,5.56,71728.8,-5.71,-15.53,-15.35,0,*54
1513242302.29,57271,5.56,71742.5,-5.69,-15.49,-15.39,0,*5B
1513242303.5,57272,5.56,71738.5,-5.71,-15.67,-15.63,0,*52
1513242304.76,57273,5.56,71768.3,-5.69,-15.53,-15.39,0,*52
1513242305.98,57274,5.56,71758.0,-5.71,-15.67,-15.53,0,*57
1513242307.24,57275,5.56,71752.3,-5.71,-15.57,-15.57,0,*51
1513242308.46,57276,5.56,71800.5,-5.71,-15.63,-15.53,0,*51
1513242309.7,57277,5.56,71784.8,-5.71,-15.53,-15.39,0,*5F
1513242310.96,57278,5.56,71808.3,-5.71,-15.43,-15.21,0,*58
1513242312.25,57279,5.56,71788.3,-5.69,-15.35,-15.21,0,*51
1513242313.53,57280,5.56,71756.3,-5.69,-15.35,-15.21,0,*57
1513242314.77,57281,5.56,71754.5,-5.71,-15.35,-15.25,0,*5B
1513242316.03,57282,5.56,71738.3,-5.71,-15.39,-15.35,0,*55
1513242317.28,57283,5.56,71766.0,-5.71,-15.35,-15.25,0,*59
1513242318.54,57284,5.56,71766.8,-5.71,-15.35,-15.35,0,*5F
1513242319.8,57285,5.56,71760.5,-5.71,-15.39,-15.21,0,*57
1513242321.06,57286,5.56,71768.0,-5.71,-15.39,-15.21,0,*54
1513242322.34,57287,5.56,71776.5,-5.69,-15.35,-15.21,0,*50
1513242323.61,57288,5.56,71786.3,-5.69,-15.35,-15.29,0,*57
1513242324.87,57289,5.56,71790.5,-5.69,-15.29,-15.21,0,*53
1513242326.1,57290,5.56,71794.8,-5.69,-15.29,-15.15,0,*5C
1513242327.34,57291,5.56,71792.8,-5.71,-15.25,-15.21,0,*5F
1513242328.6,57292,5.56,71790.0,-5.69,-15.15,-15.01,0,*54
1513242329.85,57293,5.56,71802.0,-5.69,-15.21,-15.07,0,*54
1513242331.1,57294,5.56,71808.0,-5.69,-15.21,-15.07,0,*53
1513242332.37,57295,5.56,71796.5,-5.69,-15.21,-15.21,0,*56
1513242333.61,57296,5.56,71788.8,-5.71,-15.15,-14.93,0,*53
1513242334.86,57297,5.56,71772.5,-5.67,-14.93,-14.79,0,*5E
1513242336.09,57298,5.56,71782.5,-5.67,-15.07,-15.01,0,*53
1513242337.34,57299,5.56,71776.8,-5.67,-15.01,-15.01,0,*54
1513242338.56,57300,5.56,71778.0,-5.67,-15.07,-15.01,0,*53
1513242339.79,57301,5.56,71796.5,-5.67,-14.93,-14.89,0,*5F
1513242341.04,57302,5.56,71776.8,-5.67,-14.75,-14.75,0,*57
1513242342.3,57303,5.56,71788.0,-5.67,-14.79,-14.79,0,*56
1513242343.51,57304,5.56,71792.3,-5.67,-14.89,-14.89,0,*51
1513242344.78,57305,5.56,71774.5,-5.65,-15.01,-15.01,0,*52
1513242346.05,57306,5.56,71778.3,-5.65,-15.01,-14.93,0,*5B
1513242347.28,57307,5.56,71768.0,-5.65,-15.07,-15.07,0,*50
1513242348.53,57308,5.56,71758.8,-5.65,-15.21,-15.07,0,*5B
1513242349.77,57309,5.56,71752.5,-5.65,-15.15,-15.07,0,*5D
1513242351.0,57310,5.56,71758.3,-5.65,-15.15,-15.15,0,*56
1513242352.23,57311,5.56,71770.3,-5.65,-15.15,-15.15,0,*57
1513242353.49,57312,5.56,71780.3,-5.65,-15.29,-15.21,0,*5C
1513242354.72,57313,5.56,71768.8,-5.67,-15.35,-15.15,0,*55
1513242355.95,57314,5.56,71764.3,-5.67,-15.29,-15.21,0,*58
1513242357.2,57315,5.56,71768.0,-5.65,-15.29,-15.29,0,*53
1513242358.45,57316,5.56,71774.5,-5.65,-15.29,-15.21,0,*58
1513242359.71,57317,5.56,71770.0,-5.65,-15.29,-15.21,0,*59
1513242360.93,57318,5.56,71776.5,-5.63,-15.29,-15.29,0,*58
1513242362.15,57319,5.56,71776.3,-5.63,-15.29,-15.25,0,*55
1513242363.41,57320,5.56,71790.3,-5.65,-15.29,-15.21,0,*5D
1513242364.65,57321,5.56,71794.5,-5.65,-15.29,-15.29,0,*54
1513242365.89,57322,5.56,71790.5,-5.65,-15.29,-15.15,0,*58
1513242367.17,57323,5.56,71784.3,-5.65,-15.35,-15.21,0,*53
1513242368.38,57324,5.56,71790.8,-5.63,-15.25,-15.15,0,*54
1513242369.59,57325,5.56,71784.5,-5.63,-15.29,-15.15,0,*59
1513242370.81,57326,5.56,71792.3,-5.63,-15.29,-15.25,0,*59
1513242372.03,57327,5.56,71800.3,-5.63,-15.25,-15.15,0,*57
1513242373.24,57328,5.56,71798.0,-5.63,-15.29,-15.15,0,*54
1513242374.45,57329,5.56,71804.0,-5.63,-15.25,-15.15,0,*59
1513242375.7,57330,5.56,71810.0,-5.61,-15.29,-15.25,0,*5C
1513242376.92,57331,5.56,71806.0,-5.63,-15.29,-15.25,0,*5F
1513242378.14,57332,5.63,71812.8,-5.63,-15.25,-15.25,0,*50
1513242379.35,57333,5.56,71818.0,-5.63,-15.15,-15.11,0,*55
1513242380.57,57334,5.56,71810.3,-5.63,-15.29,-15.25,0,*5A
1513242381.79,57335,5.56,71804.5,-5.63,-15.29,-15.29,0,*57
1513242383.01,57336,5.56,71804.0,-5.63,-15.29,-15.29,0,*54
1513242384.23,57337,5.56,71808.3,-5.63,-15.25,-15.25,0,*55
1513242385.49,57338,5.56,71810.5,-5.61,-15.29,-15.35,0,*55
1513242386.75,57339,5.56,71820.8,-5.63,-15.43,-15.43,0,*5B
1513242387.97,57340,5.56,71820.0,-5.63,-15.25,-15.29,0,*59
1513242389.19,57341,5.56,71810.5,-5.63,-15.15,-15.25,0,*57
1513242390.41,57342,5.56,71814.5,-5.63,-15.29,-15.29,0,*57
1513242391.65,57343,5.56,71830.5,-5.63,-15.29,-15.35,0,*5B
1513242392.9,57344,5.56,71816.5,-5.61,-15.29,-15.25,0,*5F
1513242394.12,57345,5.56,71796.3,-5.63,-15.25,-15.29,0,*5C
1513242395.35,57346,5.56,71794.8,-5.63,-15.25,-15.35,0,*52
1513242396.61,57347,5.56,71800.3,-5.63,-15.35,-15.43,0,*53
1513242397.88,57348,5.56,71794.3,-5.61,-15.29,-15.35,0,*52
1513242399.14,57349,5.56,71778.8,-5.63,-15.35,-15.35,0,*5C
1513242400.4,57350,5.56,71770.5,-5.63,-15.35,-15.43,0,*55
1513242401.66,57351,5.56,71800.3,-5.63,-15.35,-15.43,0,*54
1513242402.93,57352,5.56,71808.5,-5.63,-15.35,-15.43,0,*57
1513242404.16,57353,5.56,71816.0,-5.63,-15.29,-15.35,0,*5A
1513242405.38,57354,5.56,71818.0,-5.63,-15.25,-15.25,0,*50
1513242406.64,57355,5.56,71814.3,-5.65,-15.21,-15.29,0,*5F
1513242407.9,57356,5.56,71808.5,-5.65,-15.29,-15.35,0,*59
1513242409.12,57357,5.56,71810.8,-5.63,-15.25,-15.29,0,*5F
1513242410.34,57358,5.56,71822.5,-5.63,-15.25,-15.25,0,*5C
1513242411.56,57359,5.56,71822.8,-5.63,-15.25,-15.29,0,*51
1513242412.78,57360,5.56,71834.0,-5.63,-15.25,-15.29,0,*5B
1513242414.0,57361,5.56,71814.0,-5.63,-15.15,-15.29,0,*59
1513242415.24,57362,5.56,71736.0,-5.61,-15.25,-15.29,0,*5B
1513242416.48,57363,5.56,71734.0,-5.63,-15.29,-15.35,0,*59
1513242417.72,57364,5.56,71746.8,-5.63,-15.25,-15.35,0,*52
1513242418.98,57365,5.56,71750.3,-5.65,-15.35,-15.49,0,*5F
1513242420.25,57366,5.56,71734.0,-5.61,-15.29,-15.35,0,*5E
1513242421.47,57367,5.56,71744.3,-5.63,-15.25,-15.25,0,*50
1513242422.7,57368,5.56,71758.3,-5.63,-15.25,-15.35,0,*5E
1513242423.92,57369,5.56,71772.3,-5.63,-15.25,-15.29,0,*52
1513242425.14,57370,5.56,71780.3,-5.63,-15.29,-15.49,0,*50
1513242426.36,57371,5.56,71784.5,-5.63,-15.29,-15.49,0,*51
1513242427.58,57372,5.56,71804.0,-5.63,-15.29,-15.49,0,*52
1513242428.82,57373,5.56,71798.3,-5.63,-15.25,-15.43,0,*55
1513242430.06,57374,5.56,71802.5,-5.63,-15.01,-15.29,0,*58
1513242431.29,57375,5.56,71808.3,-5.63,-15.01,-15.25,0,*55
1513242432.52,57376,5.56,71816.3,-5.63,-15.01,-15.11,0,*51
1513242433.75,57377,5.56,71788.0,-5.63,-15.01,-15.15,0,*54
1513242435.0,57378,5.56,71774.0,-5.61,-15.01,-15.15,0,*59
1513242436.24,57379,5.56,71770.3,-5.61,-15.11,-15.25,0,*5A
1513242437.48,57380,5.56,71782.0,-5.61,-15.11,-15.29,0,*50
1513242438.69,57381,5.56,71774.8,-5.63,-15.11,-15.15,0,*5C
1513242439.94,57382,5.56,71782.5,-5.61,-14.97,-15.11,0,*56
1513242441.17,57383,5.56,71786.3,-5.63,-15.01,-15.15,0,*5F
1513242442.38,57384,5.56,71776.5,-5.63,-15.11,-15.29,0,*56
1513242443.6,57385,5.56,71766.5,-5.63,-15.11,-15.25,0,*5B
1513242444.81,57386,5.56,71774.0,-5.63,-15.11,-15.29,0,*54
1513242446.04,57387,5.56,71784.8,-5.63,-15.25,-15.35,0,*5F
1513242447.31,57388,5.56,71770.5,-5.61,-15.15,-15.35,0,*51
1513242448.53,57389,5.56,71778.3,-5.63,-15.29,-15.49,0,*56
1513242449.75,57390,5.56,71770.5,-5.63,-15.29,-15.49,0,*5E
1513242450.98,57391,5.56,71786.8,-5.63,-15.15,-15.35,0,*5B
1513242452.22,57392,5.56,71786.3,-5.63,-15.15,-15.43,0,*59
1513242453.46,57393,5.56,71778.8,-5.63,-15.25,-15.43,0,*5B
1513242454.68,57394,5.56,71770.0,-5.63,-15.29,-15.49,0,*5A
1513242455.94,57395,5.56,71778.5,-5.63,-15.43,-15.57,0,*58
1513242457.18,57396,5.56,71782.0,-5.63,-15.29,-15.57,0,*57
1513242458.42,57397,5.56,71788.5,-5.63,-15.29,-15.57,0,*56
1513242459.64,57398,5.56,71792.8,-5.63,-15.29,-15.49,0,*56
1513242460.87,57399,5.56,71792.3,-5.63,-15.25,-15.35,0,*50
1513242462.16,57400,5.56,71788.5,-5.65,-15.21,-15.39,0,*59
1513242463.39,57401,5.56,71772.5,-5.63,-15.15,-15.43,0,*54
1513242464.62,57402,5.56,71776.8,-5.63,-15.11,-15.35,0,*52
1513242465.86,57403,5.56,71780.8,-5.63,-15.11,-15.43,0,*52
1513242467.1,57404,5.56,71782.3,-5.63,-15.29,-15.57,0,*5B
1513242468.33,57405,5.56,71774.5,-5.63,-15.25,-15.57,0,*56
1513242469.55,57406,5.56,71756.0,-5.63,-15.25,-15.49,0,*5A
1513242470.79,57407,5.56,71764.0,-5.63,-15.43,-15.63,0,*53
1513242472.02,57408,5.56,71752.8,-5.63,-15.43,-15.63,0,*5C
1513242473.24,57409,5.56,71748.5,-5.63,-15.25,-15.49,0,*55
1513242474.48,57410,5.56,71770.8,-5.65,-15.29,-15.49,0,*57
1513242475.72,57411,5.56,71742.8,-5.67,-15.21,-15.49,0,*5C
1513242476.95,57412,5.56,71756.5,-5.63,-15.11,-15.35,0,*53
1513242478.18,57413,5.56,71748.0,-5.63,-15.11,-15.43,0,*53
1513242479.41,57414,5.56,71740.5,-5.63,-15.11,-15.43,0,*54
1513242480.65,57415,5.56,71740.5,-5.63,-15.15,-15.43,0,*51
1513242481.89,57416,5.56,71760.5,-5.63,-15.25,-15.57,0,*54
1513242483.11,57417,5.56,71760.8,-5.63,-15.15,-15.49,0,*59
1513242484.36,57418,5.56,71754.5,-5.63,-15.01,-15.35,0,*58
1513242485.61,57419,5.56,71752.8,-5.63,-14.97,-15.35,0,*57
1513242486.85,57420,5.56,71748.8,-5.63,-14.97,-15.25,0,*5C
1513242488.09,57421,5.56,71732.0,-5.63,-14.83,-15.15,0,*5B
1513242489.34,57422,5.56,71740.0,-5.61,-14.69,-15.01,0,*5B
1513242490.57,57423,5.56,71766.8,-5.63,-14.69,-14.97,0,*56
1513242491.86,57424,5.56,71752.8,-5.61,-14.75,-15.01,0,*50
1513242493.12,57425,5.56,71760.8,-5.61,-14.61,-14.83,0,*5F
1513242494.35,57426,5.56,71764.5,-5.63,-14.75,-15.11,0,*51
1513242495.59,57427,5.56,71762.0,-5.63,-14.83,-15.15,0,*5D
1513242496.84,57428,5.56,71760.3,-5.63,-14.83,-15.25,0,*51
1513242498.08,57429,5.56,71762.5,-5.63,-14.97,-15.29,0,*59
1513242499.34,57430,5.56,71732.5,-5.61,-14.97,-15.25,0,*5F
1513242500.61,57431,5.56,71730.8,-5.61,-14.83,-15.29,0,*57
1513242501.88,57432,5.56,71718.8,-5.61,-14.89,-15.01,0,*54
1513242503.16,57433,5.56,71730.0,-5.61,-14.97,-14.97,0,*54
1513242504.43,57434,5.56,71774.0,-5.61,-14.55,-14.89,0,*52